Wind_Speed
114 115 115 114 114 114 114 114 115 116 117 118 118 118 118 117 117 116 116 116 117 118 119 120 121 123 124 125 126 126 126 126 127 127 128 128 128 128 128 128 128 128
115 115 115 116 116 116 116 115 115 116 117 118 119 119 120 120 120 119 119 118 118 118 119 120 121 122 123 124 126 127 128 128 128 128 128 129 129 130 130 129 129 129
115 115 115 115 116 117 117 117 117 116 117 118 119 120 120 121 121 121 121 121 120 120 120 121 122 122 123 124 125 126 128 128 129 129 129 129 130 130 130 130 131 131
114 114 115 115 115 116 117 117 118 117 117 118 118 119 120 121 122 122 123 123 123 122 122 122 122 122 123 125 126 126 127 128 129 129 129 129 130 130 130 131 131 131
112 113 113 114 114 114 115 116 117 117 118 118 118 118 119 120 121 123 123 124 124 124 124 124 124 123 124 124 126 127 128 129 129 129 130 130 130 130 130 130 131 131
109 110 111 112 113 113 114 114 115 115 116 117 117 117 117 118 120 121 122 123 124 125 125 125 126 125 125 125 125 126 128 129 130 130 130 131 131 131 131 130 130 130
106 107 108 109 110 111 112 113 113 113 114 114 115 116 116 116 117 118 120 121 123 124 125 125 125 126 126 127 126 126 126 128 129 130 131 132 132 133 133 132 131 130
105 106 106 107 107 108 109 110 111 112 112 112 112 113 113 114 115 116 117 118 120 122 123 124 125 126 126 127 127 127 127 127 128 129 130 131 132 133 134 133 133 132
102 104 105 105 105 105 106 107 108 110 110 111 111 111 111 111 112 113 114 115 117 118 120 122 123 124 125 126 126 126 127 127 128 128 129 130 131 132 133 134 133 133
97 99 101 102 103 103 103 104 106 107 108 108 108 109 109 109 110 111 111 111 112 114 116 118 119 121 123 125 125 125 126 126 127 128 128 129 130 131 132 133 133 133
91 93 95 96 97 99 100 101 103 104 105 106 106 106 105 106 107 109 109 109 109 110 111 113 114 116 119 121 123 124 125 125 126 126 127 127 128 129 130 131 132 133
86 87 89 90 91 93 94 96 98 100 102 103 103 103 103 103 104 105 105 106 106 107 107 109 110 111 113 115 118 120 122 123 124 125 125 125 125 126 127 128 129 130
83 84 85 86 87 88 89 90 92 94 97 99 100 100 100 101 102 102 102 102 102 103 104 105 106 107 108 109 112 114 117 119 121 122 123 123 123 123 124 125 126 127
80 80 81 82 83 84 84 85 87 90 92 94 96 97 97 98 98 99 99 99 100 100 100 101 102 104 104 105 107 109 111 113 115 118 119 121 121 121 122 122 123 124
78 79 79 79 79 80 80 81 83 85 88 90 92 93 94 94 95 95 95 96 97 97 97 98 99 100 100 102 103 104 106 107 109 111 114 116 118 119 119 120 120 121
76 77 78 78 78 78 78 78 79 81 83 85 87 89 90 91 92 92 92 92 93 94 94 95 96 96 97 98 99 100 101 102 103 105 107 110 112 114 116 117 117 118
74 74 75 76 76 77 77 78 78 78 80 81 82 84 86 87 88 89 89 89 89 89 90 92 93 94 94 95 95 96 97 98 99 100 102 104 106 109 111 113 115 116
72 72 72 73 74 75 75 76 76 77 77 78 79 80 81 83 84 86 86 86 86 86 86 87 89 90 91 92 93 93 93 93 95 96 98 99 101 103 106 109 111 112
70 70 70 70 71 72 73 73 74 74 75 76 76 77 78 79 81 82 83 83 84 83 83 84 85 86 87 89 90 91 91 90 91 92 94 96 98 99 100 102 105 107
68 68 67 67 68 68 70 70 71 71 72 73 74 75 75 76 77 79 80 80 80 81 81 81 82 83 84 85 86 87 87 87 88 90 91 93 94 95 95 97 99 102
67 66 66 66 65 65 66 67 67 69 69 70 71 72 73 73 74 75 76 77 77 78 78 79 80 81 81 82 82 82 82 83 85 87 89 90 90 91 92 94 97 98
65 65 64 64 64 63 63 63 64 65 66 68 69 70 71 71 71 71 71 72 73 74 75 76 77 78 79 79 79 79 78 79 82 84 85 86 87 88 90 92 94 95
64 63 63 62 62 62 61 61 61 61 62 64 66 68 69 69 69 68 68 68 69 70 71 72 73 75 76 76 77 76 76 78 80 80 81 82 83 86 88 89 90 91
62 61 61 61 60 60 60 59 59 59 60 61 63 64 65 66 66 66 65 65 66 67 68 68 69 71 72 73 74 74 75 77 78 77 76 78 79 82 84 86 87 88
59 59 59 58 58 58 58 57 57 57 57 58 59 60 61 62 63 63 62 63 64 65 65 65 66 67 68 69 70 71 73 75 75 73 73 75 76 79 81 83 84 85
57 56 56 56 56 56 55 55 54 54 55 55 55 56 57 58 59 59 59 60 61 62 62 63 63 64 65 66 67 69 70 71 71 71 71 72 74 77 79 81 81 81
Wind_Direction
271 271 270 269 268 266 265 264 264 264 264 264 263 263 262 261 259 258 257 255 255 254 254 253 253 253 253 253 253 252 252 251 251 251 252 252 252 252 252 251 251 250
271 270 269 269 268 267 266 265 264 263 262 262 262 262 262 261 261 260 258 257 255 254 254 253 253 253 253 253 253 253 253 252 252 251 251 251 252 252 252 252 252 252
271 270 269 269 268 267 267 266 264 263 262 262 261 261 261 261 260 260 259 258 257 256 254 253 253 253 253 252 252 253 253 253 253 252 252 252 251 251 251 252 252 252
271 270 270 269 268 267 267 266 265 264 263 262 261 261 260 260 260 259 259 259 258 257 256 255 253 252 252 252 252 252 252 252 253 253 253 252 252 252 252 252 252 252
271 270 270 269 269 268 267 266 266 265 264 263 262 261 260 260 260 259 259 259 258 258 257 256 255 254 252 252 252 252 252 252 252 252 253 253 253 253 252 252 252 252
271 270 270 269 269 268 267 267 266 265 265 264 263 262 261 260 260 259 259 259 259 258 257 257 256 256 254 253 252 251 251 251 252 252 252 252 253 253 253 253 252 252
271 270 269 269 268 268 268 267 267 266 265 264 264 263 262 261 260 260 259 259 259 259 258 258 257 256 256 255 254 252 251 251 251 251 252 252 252 252 252 252 253 253
271 271 270 269 268 268 267 267 267 267 266 265 264 264 263 262 261 260 259 259 259 258 258 258 258 257 257 256 255 254 253 252 251 251 251 251 251 252 252 252 252 252
271 270 270 270 269 269 268 267 267 267 266 266 265 265 264 263 262 261 259 259 258 258 258 258 258 258 257 257 257 256 255 254 253 252 251 251 251 251 252 252 252 252
269 269 269 269 269 269 269 268 268 267 266 266 266 265 265 264 264 263 261 260 259 258 258 257 257 257 257 257 257 257 256 256 255 254 253 252 251 251 251 251 252 252
269 269 268 268 268 268 268 268 268 268 267 267 267 266 265 265 264 264 263 262 261 260 259 258 257 257 257 257 257 257 257 257 256 255 255 254 253 252 252 251 251 251
272 271 270 269 268 267 267 267 267 267 267 267 267 266 266 265 265 264 263 263 262 262 261 260 258 257 257 257 257 257 257 257 257 257 256 255 255 254 253 253 252 252
273 272 271 270 269 268 267 267 266 266 266 266 266 266 265 265 265 264 264 263 263 262 261 261 260 259 258 257 257 256 256 256 257 257 257 257 256 255 255 254 254 253
274 273 271 270 269 269 268 267 266 266 266 266 266 265 265 264 264 264 264 264 264 263 262 261 261 260 260 259 258 257 256 256 256 256 257 257 257 256 256 255 255 254
277 276 274 273 271 270 269 268 267 266 266 266 266 266 266 266 265 265 264 264 264 264 263 262 262 261 260 259 259 258 257 257 256 256 256 256 257 257 257 256 255 255
278 277 277 276 275 273 271 269 267 266 266 265 265 266 266 266 266 266 265 264 263 263 263 263 263 262 261 260 259 259 258 257 257 256 256 255 256 256 256 256 256 256
279 278 277 276 275 274 273 271 270 269 268 266 266 265 265 266 266 266 265 265 264 263 262 262 262 262 262 261 260 260 259 258 258 257 256 255 255 255 255 255 255 255
280 278 277 276 275 274 273 272 272 271 270 269 268 267 266 265 265 265 265 265 264 263 262 262 261 261 261 261 261 260 259 259 258 258 257 256 255 254 254 254 254 254
282 280 279 277 276 275 274 273 272 271 271 270 269 268 267 266 265 265 265 264 264 264 263 262 261 261 260 260 260 260 260 259 258 258 257 257 256 255 254 254 254 254
284 282 281 279 277 276 275 275 274 273 272 270 269 268 267 266 265 265 265 264 264 264 263 263 262 261 260 259 259 259 259 259 259 258 257 257 256 256 256 255 254 253
286 284 283 281 279 278 276 275 274 274 273 272 270 269 268 267 265 264 264 264 264 263 263 263 262 262 261 261 260 259 259 258 257 257 257 257 257 256 256 255 254 253
287 286 285 283 282 280 278 276 275 274 273 272 271 270 269 268 266 265 264 264 263 263 262 262 262 262 262 261 261 260 259 258 257 256 256 256 256 256 255 255 255 255
289 287 286 285 283 282 281 279 276 274 273 272 271 270 270 269 268 267 266 265 263 262 261 261 260 260 260 261 261 260 260 258 257 256 255 255 255 255 255 255 255 255
289 288 287 286 285 283 282 280 278 276 274 272 271 270 270 270 269 269 267 266 264 263 261 260 260 259 259 260 260 260 259 258 258 257 256 256 255 255 255 255 255 255
290 289 288 287 285 284 282 281 279 277 275 273 271 271 270 269 269 268 267 266 264 263 262 261 260 260 259 259 259 259 258 258 259 258 257 256 256 256 255 255 255 255
292 291 289 288 286 285 284 283 281 279 276 274 272 271 270 269 268 267 266 265 264 263 263 262 261 260 260 259 259 258 258 258 259 258 257 256 255 255 255 255 255 255
Height
10179 10177 10176 10176 10176 10177 10178 10177 10176 10175 10174 10173 10173 10174 10175 10177 10179 10182 10184 10186 10188 10188 10188 10189 10191 10192 10193 10194 10196 10199 10202 10204 10206 10208 10210 10213 10215 10218 10221 10225 10228 10230
10158 10157 10156 10155 10153 10153 10154 10155 10156 10157 10155 10154 10153 10153 10154 10154 10156 10158 10160 10164 10167 10169 10170 10170 10172 10174 10176 10177 10177 10178 10181 10183 10186 10189 10191 10194 10196 10198 10202 10206 10209 10211
10136 10135 10135 10134 10133 10131 10130 10131 10133 10135 10136 10135 10134 10134 10134 10133 10134 10135 10137 10139 10142 10146 10149 10151 10153 10155 10157 10158 10159 10160 10161 10163 10165 10168 10172 10175 10176 10179 10183 10186 10190 10193
10116 10115 10113 10112 10112 10111 10109 10108 10108 10110 10113 10114 10114 10114 10114 10114 10114 10114 10115 10117 10119 10122 10125 10128 10132 10136 10138 10139 10140 10141 10143 10144 10145 10148 10151 10155 10157 10161 10164 10167 10171 10174
10096 10094 10093 10091 10091 10090 10089 10087 10086 10086 10088 10090 10093 10094 10095 10094 10094 10094 10095 10096 10097 10100 10102 10104 10108 10113 10117 10120 10121 10122 10124 10126 10128 10130 10132 10135 10138 10141 10145 10148 10152 10155
10076 10074 10072 10070 10069 10068 10067 10067 10066 10066 10066 10067 10069 10072 10074 10075 10075 10076 10076 10076 10076 10078 10081 10083 10085 10089 10093 10097 10101 10104 10106 10107 10109 10112 10115 10117 10119 10121 10125 10128 10132 10136
10056 10054 10052 10051 10049 10048 10046 10045 10045 10045 10045 10046 10047 10049 10051 10054 10055 10057 10057 10057 10057 10057 10059 10062 10064 10067 10070 10073 10077 10082 10087 10090 10091 10093 10096 10099 10100 10101 10105 10109 10113 10117
10037 10034 10031 10031 10030 10029 10028 10026 10025 10024 10024 10025 10027 10028 10030 10032 10034 10036 10038 10039 10039 10039 10039 10041 10044 10046 10048 10050 10054 10059 10065 10070 10073 10075 10077 10079 10082 10083 10085 10090 10095 10100
10020 10016 10013 10012 10011 10011 10010 10009 10007 10005 10004 10004 10006 10007 10009 10011 10012 10015 10017 10019 10020 10021 10021 10023 10025 10027 10027 10029 10032 10037 10042 10046 10051 10055 10058 10061 10063 10066 10068 10071 10076 10082
10005 10000 9997 9995 9994 9993 9993 9991 9989 9987 9986 9985 9987 9988 9990 9991 9992 9993 9995 9998 10000 10002 10004 10005 10007 10009 10009 10010 10012 10016 10020 10024 10028 10032 10037 10041 10044 10048 10051 10053 10057 10062
9990 9986 9983 9981 9979 9977 9976 9974 9971 9969 9967 9967 9968 9970 9972 9974 9974 9973 9974 9977 9980 9983 9985 9987 9989 9991 9992 9993 9994 9996 9999 10003 10006 10009 10014 10019 10024 10029 10033 10036 10040 10044
9973 9971 9969 9967 9964 9962 9961 9959 9956 9953 9951 9949 9949 9951 9954 9955 9955 9955 9956 9958 9961 9963 9966 9968 9970 9973 9975 9977 9978 9979 9981 9984 9985 9989 9993 9998 10004 10009 10013 10017 10021 10026
9957 9955 9952 9950 9948 9947 9946 9944 9942 9938 9935 9933 9933 9934 9936 9936 9936 9936 9938 9941 9943 9945 9947 9949 9950 9953 9957 9960 9961 9962 9965 9967 9968 9970 9973 9977 9983 9989 9993 9997 10001 10006
9940 9938 9936 9934 9933 9932 9931 9930 9927 9924 9920 9918 9917 9917 9918 9919 9919 9920 9922 9924 9925 9927 9929 9931 9933 9934 9937 9941 9943 9944 9947 9950 9952 9954 9956 9958 9963 9968 9972 9977 9983 9987
9924 9922 9920 9919 9918 9918 9917 9916 9913 9910 9907 9904 9903 9902 9902 9902 9904 9906 9907 9908 9909 9910 9912 9914 9915 9917 9920 9922 9924 9926 9929 9932 9936 9939 9941 9943 9945 9949 9952 9957 9963 9967
9910 9907 9904 9903 9902 9902 9901 9899 9898 9896 9893 9891 9890 9888 9888 9888 9888 9890 9892 9893 9895 9896 9897 9898 9898 9900 9902 9904 9906 9908 9910 9914 9918 9921 9924 9927 9929 9932 9934 9938 9943 9947
9897 9894 9891 9889 9887 9885 9884 9883 9882 9881 9880 9878 9877 9876 9875 9874 9874 9874 9876 9878 9880 9882 9882 9883 9883 9884 9885 9887 9889 9891 9893 9897 9901 9904 9907 9909 9912 9915 9918 9920 9923 9926
9883 9880 9878 9876 9873 9871 9870 9868 9868 9867 9866 9865 9864 9863 9862 9860 9860 9860 9860 9862 9864 9866 9868 9868 9868 9869 9870 9871 9873 9874 9877 9882 9886 9887 9890 9892 9894 9897 9899 9901 9904 9908
9869 9866 9864 9862 9860 9858 9856 9855 9854 9853 9852 9851 9850 9849 9848 9847 9847 9846 9846 9847 9849 9851 9852 9853 9854 9855 9855 9857 9858 9858 9862 9868 9870 9871 9873 9874 9875 9878 9882 9886 9890 9892
9856 9853 9851 9849 9847 9845 9843 9842 9841 9840 9839 9837 9836 9835 9834 9834 9833 9833 9833 9834 9835 9836 9837 9838 9839 9840 9840 9842 9844 9845 9849 9854 9855 9856 9856 9857 9859 9863 9868 9871 9872 9873
9843 9840 9838 9836 9834 9833 9831 9830 9828 9827 9825 9824 9822 9821 9820 9820 9820 9820 9821 9821 9822 9823 9823 9824 9825 9825 9826 9828 9830 9833 9837 9841 9841 9840 9840 9842 9845 9849 9852 9852 9853 9855
9831 9828 9826 9824 9822 9820 9819 9818 9816 9815 9813 9811 9810 9808 9807 9806 9807 9808 9809 9809 9810 9811 9810 9811 9812 9812 9812 9815 9817 9819 9824 9826 9825 9825 9827 9830 9833 9834 9835 9835 9836 9839
9819 9816 9814 9812 9810 9808 9807 9805 9804 9803 9801 9800 9798 9796 9795 9794 9795 9795 9796 9797 9797 9798 9798 9799 9800 9799 9800 9802 9803 9807 9810 9809 9808 9811 9815 9818 9820 9820 9819 9821 9823 9826
9808 9805 9803 9801 9799 9797 9795 9793 9792 9791 9789 9788 9786 9785 9784 9784 9784 9784 9784 9784 9784 9784 9785 9786 9787 9787 9789 9791 9792 9794 9795 9793 9794 9800 9804 9806 9807 9807 9806 9808 9810 9812
9798 9795 9792 9790 9788 9786 9784 9782 9781 9780 9778 9776 9775 9774 9773 9773 9773 9772 9773 9772 9771 9772 9773 9775 9776 9777 9778 9779 9780 9781 9781 9780 9783 9790 9793 9794 9795 9795 9794 9794 9795 9798
9788 9785 9782 9780 9777 9775 9773 9772 9770 9768 9767 9766 9765 9764 9763 9762 9762 9762 9762 9762 9761 9761 9763 9764 9765 9766 9767 9768 9768 9768 9768 9770 9774 9778 9780 9782 9782 9781 9780 9781 9783 9787